Location: Observatoire
(46.1952°N, 5.3391°E)
Time: 23:16:05
(UTC+01:00)

Courier 1B Rocket - Pass Details

Date: 18 February 2026
Orbit: 920 x 1201 km, 28.2° (Epoch: 11 March)

Event Time Altitude Azimuth Distance (km) Brightness Sun altitude
Rises 20:42:53 0° 228° (SW) 3,552 8.4 -27.2°
Reaches altitude 10° 20:46:44 10° 205° (SSW) 2,634 7.4 -27.8°
Enters shadow 20:48:54 14° 185° (S) 2,377 6.9 -28.2°
Maximum altitude 20:49:59 15° 174° (S) 2,350 - -28.4°
Drops below altitude 10° 20:53:19 10° 142° (SE) 2,704 - -29.0°
Sets 20:57:22 0° 120° (ESE) 3,710 - -29.6°
